Location: Bothwell
(41.7170°N, 112.2589°W)
Time: 15:19:11
(UTC+00:00)

Vanguard 2 - Pass Details

Date: 19 May 2026
Orbit: 553 x 2894 km, 32.9° (Epoch: 8 June)

Event Time Altitude Azimuth Distance (km) Brightness Sun altitude
Rises 04:38:47 0° 176° (S) 5,395 - -17.4°
Reaches altitude 10° 04:45:27 10° 151° (SSE) 4,924 - -18.2°
Maximum altitude 04:50:42 13° 129° (SE) 5,013 - -18.8°
Drops below altitude 10° 04:56:27 10° 108° (ESE) 5,512 - -19.5°
Exits shadow 04:57:29 - 105° (ESE) 5,634 11.5 -19.6°
Sets 05:05:01 0° 86° (E) 6,725 12.0 -20.4°
